• In Österreich
  • Länderverzeichnis
  • Für 7 Tage
  • Wassertemperatur
  • Satellitenkarten
  • Wetterkarte
  • News
  • Widgets
  • user-avatar
    Anmelden

    Stündliche Wetter Shkoder

    Heute, 18 Juli, Mittwoch

    Zeit Temperatur Niederschläge Wind Luftdruck Luftfeuchtigkeit
    00:00 +19°C° 0 mm 2 m/S 737 mmHg 84%
    01:00 +19°C° 0 mm 2 m/S 736 mmHg 85%
    02:00 +19°C° 0 mm 2 m/S 736 mmHg 84%
    03:00 +19°C° 0 mm 2 m/S 736 mmHg 84%
    04:00 +18°C° 0 mm 2 m/S 736 mmHg 83%
    05:00 +20°C° 0 mm 2 m/S 737 mmHg 77%
    06:00 +23°C° 0 mm 2 m/S 737 mmHg 72%
    07:00 +25°C° 0 mm 2 m/S 737 mmHg 65%
    08:00 +26°C° 0 mm 2 m/S 737 mmHg 59%
    09:00 +28°C° 0 mm 2 m/S 737 mmHg 53%
    10:00 +29°C° 0 mm 2 m/S 737 mmHg 47%
    11:00 +29°C° 0,1 mm 2 m/S 737 mmHg 47%
    12:00 +30°C° 0,1 mm 3 m/S 737 mmHg 47%
    13:00 +30°C° 0,1 mm 4 m/S 737 mmHg 47%
    14:00 +30°C° 0 mm 4 m/S 737 mmHg 49%
    15:00 +30°C° 0 mm 4 m/S 737 mmHg 51%
    16:00 +29°C° 0 mm 4 m/S 737 mmHg 53%
    17:00 +28°C° 0,5 mm 3 m/S 737 mmHg 59%
    18:00 +26°C° 0,5 mm 3 m/S 737 mmHg 65%
    19:00 +24°C° 0,5 mm 3 m/S 737 mmHg 70%
    20:00 +22°C° 0,1 mm 3 m/S 737 mmHg 71%
    21:00 +21°C° 0,1 mm 3 m/S 738 mmHg 72%
    22:00 +20°C° 0,1 mm 2 m/S 738 mmHg 72%
    23:00 +20°C° 0 mm 2 m/S 738 mmHg 72%

    Morgen, 19 Juli, Donnerstag

    Zeit Temperatur Niederschläge Wind Luftdruck Luftfeuchtigkeit
    00:00 +20°C° 0 mm 2 m/S 738 mmHg 73%
    01:00 +19°C° 0 mm 2 m/S 738 mmHg 73%
    02:00 +19°C° 0 mm 2 m/S 738 mmHg 73%
    03:00 +19°C° 0 mm 2 m/S 737 mmHg 74%
    04:00 +19°C° 0 mm 2 m/S 737 mmHg 74%
    05:00 +21°C° 0 mm 2 m/S 737 mmHg 70%
    06:00 +23°C° 0 mm 2 m/S 737 mmHg 66%
    07:00 +25°C° 0 mm 1 m/S 737 mmHg 61%
    08:00 +26°C° 0 mm 2 m/S 737 mmHg 57%
    09:00 +27°C° 0 mm 2 m/S 738 mmHg 53%
    10:00 +29°C° 0 mm 2 m/S 738 mmHg 49%
    11:00 +29°C° 0,1 mm 2 m/S 738 mmHg 50%
    12:00 +29°C° 0,1 mm 3 m/S 738 mmHg 51%
    13:00 +29°C° 0,1 mm 3 m/S 738 mmHg 52%
    14:00 +29°C° 0,2 mm 3 m/S 738 mmHg 53%
    15:00 +29°C° 0,2 mm 3 m/S 738 mmHg 54%
    16:00 +29°C° 0,2 mm 3 m/S 738 mmHg 55%
    17:00 +28°C° 0,2 mm 3 m/S 738 mmHg 60%
    18:00 +26°C° 0,2 mm 3 m/S 738 mmHg 65%
    19:00 +25°C° 0,2 mm 2 m/S 738 mmHg 69%
    20:00 +24°C° 0,1 mm 2 m/S 738 mmHg 71%
    21:00 +22°C° 0,1 mm 3 m/S 738 mmHg 73%
    22:00 +21°C° 0,1 mm 3 m/S 739 mmHg 74%
    23:00 +21°C° 0 mm 3 m/S 738 mmHg 75%

    übermorgen, 20 Juli, Freitag

    Zeit Temperatur Niederschläge Wind Luftdruck Luftfeuchtigkeit
    00:00 +20°C° 0 mm 3 m/S 738 mmHg 76%
    01:00 +20°C° 0 mm 3 m/S 738 mmHg 77%
    02:00 +20°C° 0 mm 3 m/S 738 mmHg 78%
    03:00 +20°C° 0 mm 2 m/S 738 mmHg 78%
    04:00 +19°C° 0 mm 2 m/S 738 mmHg 78%
    05:00 +21°C° 0 mm 2 m/S 738 mmHg 74%
    06:00 +24°C° 0 mm 2 m/S 738 mmHg 70%
    07:00 +25°C° 0 mm 2 m/S 738 mmHg 66%
    08:00 +27°C° 0 mm 2 m/S 739 mmHg 59%
    09:00 +29°C° 0 mm 2 m/S 739 mmHg 52%
    10:00 +30°C° 0 mm 2 m/S 739 mmHg 44%
    11:00 +31°C° 0 mm 2 m/S 739 mmHg 43%
    12:00 +33°C° 0 mm 3 m/S 738 mmHg 41%
    13:00 +33°C° 0 mm 3 m/S 738 mmHg 40%
    14:00 +33°C° 0 mm 3 m/S 738 mmHg 41%
    15:00 +33°C° 0 mm 3 m/S 738 mmHg 42%
    16:00 +33°C° 0 mm 3 m/S 738 mmHg 43%
    17:00 +30°C° 0 mm 3 m/S 738 mmHg 50%
    18:00 +27°C° 0 mm 2 m/S 738 mmHg 56%
    19:00 +25°C° 0 mm 2 m/S 738 mmHg 63%
    20:00 +24°C° 0 mm 2 m/S 738 mmHg 64%
    21:00 +24°C° 0 mm 2 m/S 739 mmHg 65%
    22:00 +23°C° 0 mm 2 m/S 739 mmHg 65%
    23:00 +21°C° 0 mm 2 m/S 739 mmHg 65%

    21 Juli, Samstag

    Zeit Temperatur Niederschläge Wind Luftdruck Luftfeuchtigkeit
    00:00 +21°C° 0 mm 2 m/S 739 mmHg 65%
    01:00 +21°C° 0 mm 2 m/S 739 mmHg 66%
    02:00 +20°C° 0 mm 2 m/S 739 mmHg 65%
    03:00 +20°C° 0 mm 2 m/S 739 mmHg 64%
    04:00 +20°C° 0 mm 2 m/S 738 mmHg 63%
    05:00 +23°C° 0 mm 2 m/S 738 mmHg 59%
    06:00 +25°C° 0 mm 1 m/S 738 mmHg 56%
    07:00 +27°C° 0 mm 1 m/S 739 mmHg 52%
    08:00 +28°C° 0 mm 1 m/S 738 mmHg 48%
    09:00 +30°C° 0 mm 1 m/S 738 mmHg 44%
    10:00 +31°C° 0 mm 2 m/S 738 mmHg 40%
    11:00 +32°C° 0 mm 2 m/S 738 mmHg 40%
    12:00 +34°C° 0 mm 2 m/S 738 mmHg 40%
    13:00 +34°C° 0 mm 3 m/S 738 mmHg 39%
    14:00 +34°C° 0 mm 3 m/S 738 mmHg 41%
    15:00 +34°C° 0 mm 3 m/S 737 mmHg 43%
    16:00 +33°C° 0 mm 3 m/S 737 mmHg 45%
    17:00 +30°C° 0,1 mm 2 m/S 737 mmHg 52%
    18:00 +28°C° 0,1 mm 2 m/S 737 mmHg 59%
    19:00 +26°C° 0,1 mm 1 m/S 737 mmHg 65%
    20:00 +25°C° 0 mm 1 m/S 737 mmHg 66%
    21:00 +24°C° 0 mm 1 m/S 737 mmHg 67%
    22:00 +23°C° 0 mm 2 m/S 737 mmHg 67%
    23:00 +23°C° 0 mm 2 m/S 737 mmHg 66%

    22 Juli, Sonntag

    Zeit Temperatur Niederschläge Wind Luftdruck Luftfeuchtigkeit
    00:00 +23°C° 0 mm 2 m/S 737 mmHg 64%
    01:00 +23°C° 0 mm 2 m/S 737 mmHg 62%
    02:00 +23°C° 0 mm 2 m/S 737 mmHg 62%
    03:00 +23°C° 0 mm 2 m/S 737 mmHg 61%
    04:00 +21°C° 0 mm 2 m/S 736 mmHg 61%
    05:00 +24°C° 0 mm 2 m/S 736 mmHg 59%
    06:00 +26°C° 0 mm 2 m/S 736 mmHg 57%
    07:00 +28°C° 0 mm 2 m/S 736 mmHg 55%
    08:00 +30°C° 0 mm 2 m/S 735 mmHg 50%
    09:00 +31°C° 0 mm 3 m/S 735 mmHg 46%
    10:00 +33°C° 0 mm 3 m/S 735 mmHg 42%
    11:00 +34°C° 0,2 mm 3 m/S 734 mmHg 42%
    12:00 +34°C° 0,2 mm 4 m/S 733 mmHg 42%
    13:00 +34°C° 0,2 mm 4 m/S 733 mmHg 42%
    14:00 +33°C° 0 mm 4 m/S 733 mmHg 44%
    15:00 +33°C° 0 mm 3 m/S 732 mmHg 45%
    16:00 +33°C° 0 mm 3 m/S 732 mmHg 47%
    17:00 +30°C° 0 mm 2 m/S 732 mmHg 53%
    18:00 +28°C° 0 mm 2 m/S 732 mmHg 59%
    19:00 +26°C° 0 mm 1 m/S 732 mmHg 66%
    20:00 +25°C° 0,7 mm 1 m/S 732 mmHg 69%
    21:00 +24°C° 0,7 mm 2 m/S 732 mmHg 72%
    22:00 +23°C° 0,7 mm 2 m/S 733 mmHg 75%
    23:00 +21°C° 0,6 mm 2 m/S 732 mmHg 78%

    23 Juli, Montag

    Zeit Temperatur Niederschläge Wind Luftdruck Luftfeuchtigkeit
    00:00 +21°C° 0,6 mm 2 m/S 732 mmHg 80%
    01:00 +20°C° 0,6 mm 3 m/S 732 mmHg 83%
    02:00 +20°C° 0,5 mm 3 m/S 732 mmHg 84%
    03:00 +19°C° 0,5 mm 3 m/S 732 mmHg 86%
    04:00 +19°C° 0,5 mm 3 m/S 732 mmHg 87%
    05:00 +20°C° 0,1 mm 3 m/S 732 mmHg 83%
    06:00 +22°C° 0,1 mm 3 m/S 732 mmHg 79%
    07:00 +24°C° 0,1 mm 3 m/S 732 mmHg 75%
    08:00 +25°C° 0,2 mm 3 m/S 732 mmHg 69%
    09:00 +27°C° 0,2 mm 2 m/S 732 mmHg 63%
    10:00 +28°C° 0,2 mm 2 m/S 732 mmHg 57%
    11:00 +28°C° 0,8 mm 2 m/S 732 mmHg 57%
    12:00 +29°C° 0,8 mm 2 m/S 732 mmHg 57%
    13:00 +29°C° 0,8 mm 3 m/S 732 mmHg 57%
    14:00 +28°C° 1,2 mm 3 m/S 732 mmHg 61%
    15:00 +27°C° 1,2 mm 3 m/S 732 mmHg 65%
    16:00 +27°C° 1,2 mm 3 m/S 732 mmHg 69%
    17:00 +26°C° 0,6 mm 3 m/S 732 mmHg 72%
    18:00 +25°C° 0,6 mm 3 m/S 732 mmHg 75%
    19:00 +24°C° 0,6 mm 3 m/S 733 mmHg 79%
    20:00 +22°C° 0,1 mm 3 m/S 733 mmHg 81%
    21:00 +21°C° 0,1 mm 3 m/S 733 mmHg 83%
    22:00 +21°C° 0,1 mm 3 m/S 733 mmHg 85%
    23:00 +20°C° 0 mm 3 m/S 733 mmHg 85%
    Mehr zeigen